Location: Erba
(45.8000°N, 9.2500°E)
Time: 17:17:41
(UTC+02:00)

ISS - Pass Details

Date: 28 March 2023
Orbit: 413 x 421 km, 51.6° (Epoch: 29 March)

Event Time Altitude Azimuth Distance (km) Brightness Sun altitude
Rises 21:18:13 0° 298° (WNW) 2,357 1.9 -16.4°
Reaches altitude 10° 21:20:21 10° 302° (WNW) 1,491 0.3 -16.8°
Maximum altitude 21:23:39 61° 23° (NNE) 476 -3.6 -17.3°
Enters shadow 21:24:20 47° 76° (ENE) 555 -3.5 -17.4°
